Weather History for Nuuk, Greenland

Change the Weather History Date:

Friday, December 21, 2012

  Actual Average Record
Temperature  
Mean Temperature 28 °F -  
Max Temperature 32 °F 21 °F 44 °F (1996)
Min Temperature 24 °F 15 °F 5 °F (2004)
Degree Days  
Heating Degree Days 37    
Moisture  
Dew Point 19 °F    
Average Humidity 67    
Maximum Humidity 80    
Minimum Humidity 54    
Precipitation  
Precipitation 0.00 in - - ()
Sea Level Pressure  
Sea Level Pressure 29.69 in    
Wind  
Wind Speed 9 mph ()    
Max Wind Speed 15 mph    
Max Gust Speed -    
Visibility 6.2 miles    
Events      
Averages and records for this station are not official NWS values.
T = Trace of Precipitation, MM = Missing Value Source: Averaged Metar Reports

Daily Weather History Graph

Daily Weather History Graph

Search for Another Location

Airport:

Trip Planner

Search our weather history database for the weather conditions in past years. The results will help you decide how hot, cold, wet, or windy it might be!

Date:

Astronomy

Dec. 21, 2012 Rise Set
Actual Time 10:22 AM WGT 2:27 PM WGT
Civil Twilight 9:02 AM WGT 3:47 PM WGT
Nautical Twilight 7:53 AM WGT 4:56 PM WGT
Astronomical Twilight 6:53 AM WGT 5:56 PM WGT
Moon 11:59 AM WGT (12/21) 2:06 AM WGT (12/21)
Length of Visible Light 6h 44m
Length of Day
4h 05m
Waxing Gibbous, 64% of the Moon is Illuminated
Dec 21
Waxing Gibbous
Dec 28
Full
Jan 5
Last Quarter
Jan 11
New
Jan 18
First Quarter

Hourly Weather History & Observations

Time (WGT) Temp. Windchill Dew Point Humidity Pressure Visibility Wind Dir Wind Speed Gust Speed Precip Events Conditions
12:00 AM 27 °F - 21 °F 71% 29.55 in 31 mi NNE 11.5 mph - -  
12:20 AM 28.4 °F 18.5 °F 21.2 °F 74% 29.56 in 6.2 mi ENE 11.5 mph - N/A   Partly Cloudy
12:50 AM 28.4 °F 18.0 °F 21.2 °F 74% 29.56 in 6.2 mi ENE 12.7 mph - N/A   Partly Cloudy
1:20 AM 28.4 °F 18.5 °F 19.4 °F 69% 29.56 in 6.2 mi ENE 11.5 mph - N/A   Partly Cloudy
1:50 AM 26.6 °F 16.2 °F 19.4 °F 74% 29.56 in 6.2 mi ENE 11.5 mph - N/A   Unknown
2:20 AM 26.6 °F 16.2 °F 21.2 °F 80% 29.56 in 6.2 mi ENE 11.5 mph - N/A   Partly Cloudy
2:50 AM 26.6 °F 16.2 °F 21.2 °F 80% 29.59 in 6.2 mi ENE 11.5 mph - N/A   Partly Cloudy
3:00 AM 28 °F - 22 °F 68% 29.57 in 31 mi North 11.5 mph - -   Scattered Clouds
3:20 AM 28.4 °F 18.5 °F 21.2 °F 74% 29.59 in 6.2 mi ENE 11.5 mph - N/A   Unknown
3:50 AM 26.6 °F 16.2 °F 21.2 °F 80% 29.59 in 6.2 mi ENE 11.5 mph - N/A   Unknown
4:20 AM 26.6 °F 16.2 °F 21.2 °F 80% 29.59 in 6.2 mi ENE 11.5 mph - N/A   Partly Cloudy
4:50 AM 26.6 °F 16.2 °F 21.2 °F 80% 29.59 in 6.2 mi ENE 11.5 mph - N/A   Unknown
5:20 AM 28.4 °F 20.4 °F 21.2 °F 74% 29.62 in 6.2 mi ENE 8.1 mph - N/A   Unknown
5:50 AM 28.4 °F 19.1 °F 21.2 °F 74% 29.62 in 6.2 mi ENE 10.4 mph - N/A   Unknown
6:00 AM 29 °F - 22 °F 64% 29.60 in 31 mi NNE 15.0 mph - -   Scattered Clouds
6:50 AM 28.4 °F 20.4 °F 21.2 °F 74% 29.62 in 6.2 mi ENE 8.1 mph - N/A   Partly Cloudy
9:00 AM 30 °F - 21 °F 59% 29.65 in 31 mi NNE 12.7 mph - -   Partly Cloudy
9:50 AM 28.4 °F 23.3 °F 17.6 °F 64% 29.68 in 6.2 mi ENE 4.6 mph - N/A   Partly Cloudy
11:50 AM 28.4 °F - 19.4 °F 69% 29.71 in 6.2 mi East 2.3 mph - N/A   Partly Cloudy
12:00 PM 31 °F - 22 °F 59% 29.69 in 31 mi NNE 9.2 mph - -   Scattered Clouds
2:50 PM 28.4 °F 19.7 °F 17.6 °F 64% 29.74 in 6.2 mi ENE 9.2 mph - N/A   Partly Cloudy
3:00 PM 31 °F - 21 °F 54% 29.72 in 31 mi North 10.4 mph - -   Scattered Clouds
3:50 PM 30.2 °F 21.9 °F 17.6 °F 60% 29.74 in 6.2 mi ENE 9.2 mph - N/A   Partly Cloudy
4:50 PM 28.4 °F 24.6 °F 15.8 °F 59% 29.77 in 6.2 mi East 3.5 mph - N/A   Partly Cloudy
6:00 PM 31 °F - 22 °F 60% 29.78 in 31 mi NE 6.9 mph - -  
6:50 PM 26.6 °F 18.2 °F 15.8 °F 64% 29.80 in 6.2 mi ENE 8.1 mph - N/A   Partly Cloudy
7:50 PM 30.2 °F 21.9 °F 17.6 °F 60% 29.80 in 6.2 mi ENE 9.2 mph - N/A   Partly Cloudy
8:20 PM 28.4 °F 19.1 °F 15.8 °F 59% 29.80 in 6.2 mi ENE 10.4 mph - N/A   Unknown
8:50 PM 28.4 °F 20.4 °F 17.6 °F 64% 29.80 in 6.2 mi ENE 8.1 mph - N/A   Unknown
9:00 PM 31 °F - 23 °F 64% 29.80 in 31 mi NNE 13.8 mph - -   Scattered Clouds
9:20 PM 30.2 °F 21.3 °F 15.8 °F 55% 29.80 in 6.2 mi ENE 10.4 mph - N/A   Partly Cloudy
9:50 PM 32.0 °F 21.6 °F 21.2 °F 64% 29.80 in 6.2 mi ENE 15.0 mph - N/A   Unknown
10:20 PM 32.0 °F 23.6 °F 17.6 °F 55% 29.80 in 6.2 mi ENE 10.4 mph - N/A   Partly Cloudy
10:50 PM 26.6 °F 22.6 °F 14.0 °F 59% 29.83 in 6.2 mi East 3.5 mph - N/A   Scattered Clouds
11:20 PM 24.8 °F - 15.8 °F 69% 29.83 in 6.2 mi Calm Calm - N/A   Partly Cloudy
11:50 PM 26.6 °F 22.6 °F 15.8 °F 64% 29.83 in 6.2 mi ENE 3.5 mph - N/A   Unknown